User: anonymous   Login
Location: Ostrava
(49.8330°N, 18.2830°E)
Time: 20:54:19
(UTC+01:00)
Language:

Explorer 7 - Orbit

View from above orbital plane
View from above orbital plane
View from above satellite
View from above satellite

Ground track
Ground track

The orbit data is extracted from the following two-line orbital elements,

1 00022U 59009A   14350.11731743  .00009743  00000-0  81293-3 0  1077
2 00022 050.2824 156.9366 0151478 152.6012 208.3024 14.90612630924776
Epoch (UTC): 16 December 2014 02:48:56
Eccentricity: 0.0151478
inclination: 50.2824°
perigee height: 490 km
apogee height: 701 km
right ascension of ascending node: 156.9366°
argument of perigee: 152.6012°
revolutions per day: 14.90612630
mean anomaly at epoch: 208.3024°
orbit number at epoch: 92477

The dashed part of the orbit path shows where the satellite is in the earth's shadow,  

DLR